KB5DPX Weather Reports


time (UTC)temp
F
wind
direction
speed
knots
gust
knots
rain 1hr
in
rain 24hr
in
rain mn
in
humidity
%
barometer
mb
20260509123723 55 226 4.3 13.9 0.00 0.00 0.00 68 998.1
20260509123239 55 205 7.0 17.4 0.00 0.00 0.00 68 997.7
20260509122739 55 190 8.7 17.4 0.00 0.00 0.00 67 997.6
20260509122244 55 193 6.1 14.8 0.00 0.00 0.00 67 997.6
20260509121730 55 202 7.0 14.8 0.00 0.00 0.00 67 997.7
20260509121236 54 180 6.1 13.9 0.00 0.00 0.00 66 997.7
20260509120722 54 190 7.8 15.6 0.00 0.00 0.00 66 997.7
20260509120238 54 196 7.0 15.6 0.00 0.00 0.00 66 997.8
20260509115717 54 192 7.0 13.9 0.00 0.00 0.00 65 997.8
20260509115231 54 196 5.2 14.8 0.00 0.00 0.00 65 997.8
20260509114719 53 174 7.8 13.0 0.00 0.00 0.00 65 997.8
20260509114216 53 194 6.1 13.0 0.00 0.00 0.00 65 997.9
20260509113729 52 183 4.3 9.6 0.00 0.00 0.00 64 997.9
20260509113237 52 174 5.2 8.7 0.00 0.00 0.00 64 997.8
20260509112737 52 170 3.5 9.6 0.00 0.00 0.00 64 997.9
20260509112226 52 171 3.5 12.2 0.00 0.00 0.00 63 997.8
20260509111742 52 150 4.3 12.2 0.00 0.00 0.00 62 997.8
20260509111231 53 151 7.8 11.3 0.00 0.00 0.00 61 997.8
20260509110719 53 146 5.2 9.6 0.00 0.00 0.00 61 997.8
20260509110236 53 154 7.0 8.7 0.00 0.00 0.00 61 997.9
20260509105730 53 167 3.5 10.4 0.00 0.00 0.00 61 998.1
20260509105239 53 167 4.3 10.4 0.00 0.00 0.00 61 998.3
20260509104728 53 173 4.3 8.7 0.00 0.00 0.00 60 998.2
20260509104236 53 175 4.3 8.7 0.00 0.00 0.00 60 998.3
20260509103721 53 180 5.2 8.7 0.00 0.00 0.00 59 998.3
20260509103234 53 174 4.3 10.4 0.00 0.00 0.00 59 998.4
20260509102735 52 180 6.1 10.4 0.00 0.00 0.00 59 998.4
20260509102220 52 174 3.5 7.0 0.00 0.00 0.00 58 998.5
20260509101733 52 164 4.3 8.7 0.00 0.00 0.00 58 998.5
20260509101240 52 182 5.2 8.7 0.00 0.00 0.00 56 998.7
20260509100729 52 168 4.3 7.0 0.00 0.00 0.00 56 998.7
20260509100218 52 168 4.3 7.0 0.00 0.00 0.00 55 998.8
20260509095725 52 161 4.3 7.0 0.00 0.00 0.00 55 999.0
20260509095241 53 169 2.6 7.8 0.00 0.00 0.00 54 999.1
20260509094728 53 167 4.3 11.3 0.00 0.00 0.00 54 999.1
20260509094244 53 169 4.3 11.3 0.00 0.00 0.00 53 999.2
20260509093746 53 173 4.3 10.4 0.00 0.00 0.00 52 999.3
20260509093231 53 175 3.5 8.7 0.00 0.00 0.00 52 999.4
20260509092728 53 192 4.3 11.3 0.00 0.00 0.00 51 999.4
20260509092216 53 184 5.2 13.0 0.00 0.00 0.00 51 999.6
20260509091731 53 184 5.2 13.0 0.00 0.00 0.00 51 999.7
20260509091218 52 182 7.8 11.3 0.00 0.00 0.00 51 999.8
20260509090734 52 185 4.3 10.4 0.00 0.00 0.00 51 999.8
20260509090218 52 176 5.2 10.4 0.00 0.00 0.00 51 999.8
20260509085721 51 182 3.5 10.4 0.00 0.00 0.00 51 999.8
20260509085228 51 163 4.3 9.6 0.00 0.00 0.00 51 999.8
20260509084735 51 165 3.5 7.8 0.00 0.00 0.00 51 999.9
20260509084239 51 169 3.5 7.8 0.00 0.00 0.00 52 1000.0
20260509083726 51 162 2.6 7.8 0.00 0.00 0.00 52 1000.0
20260509083241 51 165 3.5 7.8 0.00 0.00 0.00 52 1000.0
20260509082719 50 169 5.2 7.8 0.00 0.00 0.00 53 1000.0
20260509082235 50 167 5.2 7.0 0.00 0.00 0.00 54 1000.1
20260509081736 50 159 4.3 7.0 0.00 0.00 0.00 55 1000.2
20260509081243 49 162 3.5 7.8 0.00 0.00 0.00 56 1000.3
20260509080729 49 155 5.2 9.6 0.00 0.00 0.00 56 1000.3
20260509080217 49 157 6.1 9.6 0.00 0.00 0.00 57 1000.3
20260509075724 49 160 4.3 7.8 0.00 0.00 0.00 56 1000.4
20260509075240 49 149 6.1 8.7 0.00 0.00 0.00 58 1000.4
20260509074727 49 149 6.1 9.6 0.00 0.00 0.00 57 1000.5
20260509074241 49 148 6.1 9.6 0.00 0.00 0.00 58 1000.6
20260509073743 49 147 7.8 9.6 0.00 0.00 0.00 57 1000.7
20260509073231 50 145 6.1 9.6 0.00 0.00 0.00 57 1000.8
20260509072729 49 149 6.1 9.6 0.00 0.00 0.00 57 1000.9
20260509072236 49 144 6.1 9.6 0.00 0.00 0.00 57 1001.0
20260509071723 49 145 7.0 9.6 0.00 0.00 0.00 58 1001.1
20260509071216 48 146 6.1 8.7 0.00 0.00 0.00 61 1001.2
20260509070732 49 144 5.2 8.7 0.00 0.00 0.00 61 1001.2
20260509070220 49 144 5.2 8.7 0.00 0.00 0.00 61 1001.4
20260509065744 49 144 7.0 8.7 0.00 0.00 0.00 61 1001.5
20260509065231 49 144 5.2 7.8 0.00 0.00 0.00 61 1001.6
20260509064735 48 149 0.0 2.6 0.00 0.00 0.00 63 1001.7
20260509064241 48 143 0.0 0.0 0.00 0.00 0.00 64 1001.7
20260509063725 47 141 0.0 0.0 0.00 0.00 0.00 66 1001.9
20260509063241 47 138 0.0 0.0 0.00 0.00 0.00 67 1001.9
20260509062737 47 140 0.0 0.0 0.00 0.00 0.00 68 1002.1
20260509062239 46 140 0.0 0.0 0.00 0.00 0.00 70 1002.1
20260509061728 46 138 0.0 0.0 0.00 0.00 0.00 73 1002.2
20260509061216 46 134 0.0 0.0 0.00 0.00 0.00 73 1002.2
20260509060733 46 136 0.0 0.0 0.00 0.00 0.00 74 1002.3
20260509060242 46 138 0.0 0.0 0.00 0.00 0.00 73 1002.3
20260509055742 46 139 0.0 0.0 0.00 0.00 0.00 74 1002.5
20260509055231 46 144 0.0 0.0 0.00 0.00 0.00 76 1002.6
20260509054721 46 144 0.0 0.0 0.00 0.00 0.00 77 1002.7
20260509054218 46 144 0.0 0.0 0.00 0.00 0.00 75 1002.8
20260509053732 47 144 0.0 0.0 0.00 0.00 0.00 76 1002.9
20260509053241 46 144 0.0 0.0 0.00 0.00 0.00 71 1003.1
20260509052741 46 144 0.0 0.0 0.00 0.00 0.00 75 1003.1
20260509052228 46 144 0.0 0.0 0.00 0.00 0.00 73 1003.1
20260509051742 46 144 0.0 0.0 0.00 0.00 0.00 73 1003.2
20260509051231 45 144 0.0 0.0 0.00 0.00 0.00 76 1003.1
20260509050719 44 148 0.0 0.0 0.00 0.00 0.00 78 1003.2
20260509050236 44 134 0.0 0.0 0.00 0.00 0.00 79 1003.3
20260509045717 44 251 0.0 0.0 0.00 0.00 0.00 80 1003.4
20260509045229 44 314 0.0 0.0 0.00 0.00 0.00 81 1003.4
20260509044716 44 315 0.0 0.0 0.00 0.00 0.00 81 1003.4
20260509044233 45 315 0.0 0.0 0.00 0.00 0.00 80 1003.5
20260509043721 45 315 0.0 0.0 0.00 0.00 0.00 78 1003.6
20260509043235 45 315 0.0 0.0 0.00 0.00 0.00 77 1003.7
20260509042732 45 315 0.0 0.0 0.00 0.00 0.00 79 1003.6
20260509042221 45 315 0.0 0.0 0.00 0.00 0.00 77 1003.8
20260509041718 45 315 0.0 0.0 0.00 0.00 0.00 76 1003.9
20260509041230 45 315 0.0 0.0 0.00 0.00 0.00 78 1004.0
20260509040736 45 315 0.0 0.0 0.00 0.00 0.00 79 1004.0
20260509040243 45 315 0.0 0.0 0.00 0.00 0.00 79 1004.1
20260509035732 45 315 0.0 0.0 0.00 0.00 0.00 78 1004.2
20260509035219 45 315 0.0 0.0 0.00 0.00 0.00 79 1004.2
20260509034733 45 315 0.0 0.0 0.00 0.00 0.00 77 1004.2
20260509034221 45 315 0.0 0.0 0.00 0.00 0.00 77 1004.3
20260509033719 45 315 0.0 0.0 0.00 0.00 0.00 80 1004.3
20260509033232 45 315 0.0 0.0 0.00 0.00 0.00 79 1004.3
20260509032732 45 315 0.0 0.0 0.00 0.00 0.00 78 1004.3
20260509032241 45 315 0.0 0.0 0.00 0.00 0.00 78 1004.4
20260509031730 45 315 0.0 0.0 0.00 0.00 0.00 76 1004.5
20260509031219 45 315 0.0 0.0 0.00 0.00 0.00 76 1004.5
20260509030716 45 315 0.0 0.0 0.00 0.00 0.00 77 1004.5
20260509030233 45 315 0.0 0.0 0.00 0.00 0.00 77 1004.6
20260509025733 45 315 0.0 0.0 0.00 0.00 0.00 77 1004.7
20260509025236 45 314 0.0 0.0 0.00 0.00 0.00 76 1004.6
20260509024726 45 314 0.0 0.0 0.00 0.00 0.00 75 1004.7
20260509024235 46 314 0.0 0.0 0.00 0.00 0.00 75 1004.8
20260509023743 46 314 0.0 0.0 0.00 0.00 0.00 73 1004.8
20260509023232 46 314 0.0 0.0 0.00 0.00 0.00 73 1004.9
20260509022733 46 314 0.0 0.0 0.00 0.00 0.00 70 1004.9
20260509022220 45 314 0.0 0.0 0.00 0.00 0.00 71 1004.9
20260509021718 46 314 0.0 0.0 0.00 0.00 0.00 74 1004.9
20260509021233 46 313 0.0 0.0 0.00 0.00 0.00 74 1004.9
20260509020736 46 313 0.0 0.0 0.00 0.00 0.00 73 1005.0
20260509020243 46 313 0.0 0.0 0.00 0.00 0.00 71 1005.1
20260509015743 46 313 0.0 0.0 0.00 0.00 0.00 72 1005.1
20260509015231 46 313 0.0 0.0 0.00 0.00 0.00 72 1005.0
20260509014719 46 313 0.0 0.0 0.00 0.00 0.00 71 1005.0
20260509014233 46 313 0.0 0.0 0.00 0.00 0.00 71 1005.0
20260509013720 46 313 0.0 0.0 0.00 0.00 0.00 72 1005.0
20260509013217 47 313 0.0 0.0 0.00 0.00 0.00 73 1005.0
20260509012740 46 312 0.0 0.0 0.00 0.00 0.00 69 1005.0
20260509012228 47 313 0.0 0.0 0.00 0.00 0.00 72 1005.0
20260509011736 47 313 0.0 0.0 0.00 0.00 0.00 69 1005.0
20260509011243 47 313 0.0 0.0 0.00 0.00 0.00 70 1005.0
20260509010731 47 313 0.0 0.0 0.00 0.00 0.00 67 1004.9
20260509010246 48 313 0.0 0.0 0.00 0.00 0.00 67 1005.0
20260509005723 48 313 0.0 0.0 0.00 0.00 0.00 66 1005.0
20260509005240 49 313 0.0 0.0 0.00 0.00 0.00 64 1005.0
20260509004744 49 313 0.0 0.0 0.00 0.00 0.00 62 1005.0
20260509004231 50 313 0.0 0.0 0.00 0.00 0.00 58 1005.0
20260509003718 50 313 0.0 0.0 0.00 0.00 0.00 51 1005.0
20260509003234 50 313 0.0 0.0 0.00 0.00 0.00 52 1005.2
20260509002732 50 313 0.0 0.0 0.00 0.00 0.00 52 1005.1
20260509002220 50 313 0.0 0.0 0.00 0.00 0.00 51 1005.2
20260509001733 50 313 0.0 0.0 0.00 0.00 0.00 51 1005.2
20260509001222 51 313 0.0 0.0 0.00 0.00 0.00 51 1005.2
20260509000717 51 313 0.0 0.0 0.00 0.00 0.00 51 1005.3
20260509000229 51 312 0.0 0.0 0.00 0.00 0.00 50 1005.3
20260508235728 51 312 0.0 0.0 0.00 0.00 0.00 50 1005.4
20260508235217 51 312 0.0 5.2 0.00 0.00 0.00 50 1005.4
20260508234733 51 312 3.5 5.2 0.00 0.00 0.00 49 1005.5
20260508234221 51 312 3.5 7.0 0.00 0.00 0.00 50 1005.5
20260508233716 51 312 4.3 7.0 0.00 0.00 0.00 50 1005.6
20260508233233 51 312 3.5 5.2 0.00 0.00 0.00 49 1005.6
20260508232731 51 312 2.6 5.2 0.00 0.00 0.00 49 1005.6
20260508232235 52 312 2.6 7.0 0.00 0.00 0.00 50 1005.6
20260508231744 52 312 4.3 7.0 0.00 0.00 0.00 49 1005.7
20260508231234 52 312 4.3 7.0 0.00 0.00 0.00 49 1005.6
20260508230719 52 312 3.5 7.0 0.00 0.00 0.00 51 1005.6
20260508230236 52 311 2.6 7.8 0.00 0.00 0.00 49 1005.5
20260508225737 53 310 4.3 7.8 0.00 0.00 0.00 49 1005.6
20260508225245 53 293 3.5 6.1 0.00 0.00 0.00 48 1005.6
20260508224731 53 292 3.5 8.7 0.00 0.00 0.00 48 1005.6
20260508224236 53 292 6.1 9.6 0.00 0.00 0.00 47 1005.7
20260508223745 53 298 7.0 9.6 0.00 0.00 0.00 49 1005.6
20260508223232 53 309 4.3 8.7 0.00 0.00 0.00 48 1005.7
20260508222731 53 292 7.0 8.7 0.00 0.00 0.00 50 1005.7
20260508222218 52 306 0.0 0.0 0.00 0.00 0.00 50 1005.7
20260508221732 52 305 0.0 0.0 0.00 0.00 0.00 50 1005.8
20260508221221 52 299 0.0 0.0 0.00 0.00 0.00 51 1005.9
20260508220736 52 300 0.0 5.2 0.00 0.00 0.00 53 1006.0
20260508220237 52 301 0.0 7.8 0.00 0.00 0.00 52 1006.1
20260508215719 52 298 3.5 7.0 0.00 0.00 0.00 52 1006.1
20260508215235 52 315 2.6 5.2 0.00 0.00 0.00 53 1006.1
20260508214718 51 315 3.5 7.0 0.00 0.00 0.00 57 1006.1
20260508214234 51 317 4.3 7.0 0.00 0.00 0.00 58 1006.2
20260508213724 50 329 2.6 5.2 0.00 0.00 0.00 59 1006.2
20260508213238 50 342 1.7 7.8 0.00 0.00 0.00 61 1006.2
20260508212736 50 342 5.2 7.8 0.00 0.00 0.00 59 1006.3
20260508212240 50 336 4.3 8.7 0.00 0.00 0.00 58 1006.4
20260508211730 51 335 4.3 9.6 0.00 0.00 0.00 57 1006.4
20260508211239 52 315 4.3 9.6 0.00 0.00 0.00 57 1006.4
20260508210728 52 314 6.1 7.8 0.00 0.00 0.00 56 1006.5
20260508210236 52 301 5.2 9.6 0.00 0.00 0.00 59 1006.4
20260508205717 51 306 6.1 8.7 0.00 0.00 0.00 58 1006.6
20260508205233 51 308 3.5 8.7 0.00 0.00 0.00 59 1006.6
20260508204720 50 315 3.5 9.6 0.00 0.00 0.00 60 1006.6
20260508204231 50 308 5.2 9.6 0.00 0.00 0.00 61 1006.7
20260508203720 50 311 5.2 8.7 0.00 0.00 0.00 63 1006.8
20260508203237 50 318 6.1 8.7 0.00 0.00 0.00 63 1006.9
20260508202732 49 306 5.2 9.6 0.00 0.00 0.00 63 1007.0
20260508202220 49 317 7.8 9.6 0.00 0.00 0.00 66 1007.0
20260508201716 49 300 5.2 9.6 0.00 0.00 0.00 69 1007.0
20260508201233 48 305 6.1 10.4 0.00 0.00 0.00 71 1007.1
20260508200722 48 302 7.8 10.4 0.00 0.00 0.00 71 1007.3
20260508200239 48 293 6.1 11.3 0.00 0.00 0.00 72 1007.3
20260508195733 48 300 7.0 11.3 0.00 0.00 0.00 73 1007.3
20260508195240 48 302 7.8 11.3 0.00 0.00 0.00 74 1007.4
20260508194728 48 308 7.8 12.2 0.00 0.00 0.00 76 1007.5
20260508194236 47 302 7.8 12.2 0.00 0.00 0.00 76 1007.6
20260508193725 47 295 8.7 11.3 0.00 0.00 0.00 76 1007.6
20260508193241 47 300 7.0 12.2 0.00 0.00 0.00 76 1007.7
20260508192721 47 291 6.1 12.2 0.00 0.00 0.00 78 1007.8
20260508192236 47 310 9.6 12.2 0.00 0.00 0.00 77 1007.8
20260508191738 47 309 8.7 13.9 0.00 0.00 0.00 76 1007.9
20260508191244 47 298 9.6 13.0 0.00 0.00 0.00 77 1007.9
20260508190732 46 281 8.7 13.9 0.00 0.00 0.00 78 1007.9
20260508190239 46 287 9.6 14.8 0.00 0.00 0.00 78 1007.9
20260508185718 46 296 10.4 14.8 0.00 0.00 0.00 78 1007.8
20260508185235 46 307 8.7 14.8 0.00 0.00 0.00 78 1007.8
20260508184738 46 310 9.6 14.8 0.00 0.00 0.00 77 1007.9
20260508184238 47 288 9.6 14.8 0.00 0.00 0.00 75 1007.9
20260508183743 47 295 9.6 14.8 0.00 0.00 0.00 75 1007.9
20260508183246 47 285 9.6 13.9 0.00 0.00 0.00 74 1007.9
20260508182738 47 282 9.6 15.6 0.00 0.00 0.00 73 1007.9
20260508182240 47 297 9.6 15.6 0.00 0.00 0.00 73 1007.9
20260508181723 47 286 9.6 17.4 0.00 0.00 0.00 73 1007.9
20260508181236 47 300 10.4 17.4 0.00 0.00 0.00 73 1007.9
20260508180736 47 303 10.4 14.8 0.00 0.00 0.00 74 1008.0
20260508180239 47 308 8.7 13.0 0.00 0.00 0.00 72 1008.1
20260508175733 47 300 7.0 12.2 0.00 0.00 0.00 72 1008.1
20260508175237 47 290 7.0 13.9 0.00 0.00 0.00 73 1008.1
20260508174722 47 314 7.0 12.2 0.00 0.00 0.00 72 1008.1
20260508174236 47 323 7.0 13.9 0.00 0.00 0.00 71 1008.2
20260508173739 47 293 10.4 14.8 0.00 0.00 0.00 71 1008.2
20260508173220 48 293 9.6 14.8 0.00 0.00 0.00 70 1008.2
20260508172739 48 319 7.0 12.2 0.00 0.00 0.00 70 1008.3
20260508172246 48 277 7.0 13.0 0.00 0.00 0.00 68 1008.3
20260508171727 48 313 7.8 13.9 0.00 0.00 0.00 67 1008.3
20260508171242 48 304 9.6 13.9 0.00 0.00 0.00 67 1008.4
20260508170728 48 295 7.8 13.0 0.00 0.00 0.00 66 1008.4
20260508170241 48 316 7.0 13.9 0.00 0.00 0.00 66 1008.5
20260508165740 48 306 8.7 13.9 0.00 0.00 0.00 67 1008.4
20260508165218 48 298 7.8 11.3 0.00 0.00 0.00 67 1008.5
20260508164732 49 300 7.8 13.0 0.00 0.00 0.00 65 1008.6
20260508164217 49 296 9.6 14.8 0.00 0.00 0.00 66 1008.7
20260508163730 49 306 9.6 14.8 0.00 0.00 0.00 65 1008.7
20260508163240 49 324 9.6 14.8 0.00 0.00 0.00 64 1008.7
20260508162730 49 295 8.7 13.0 0.00 0.00 0.00 65 1008.8
20260508162240 49 316 8.7 13.0 0.00 0.00 0.00 65 1008.8
20260508161724 50 293 6.1 13.0 0.00 0.00 0.00 63 1008.8
20260508161232 50 284 7.8 13.0 0.00 0.00 0.00 63 1008.8
20260508160734 49 292 7.8 12.2 0.00 0.00 0.00 64 1008.8
20260508160218 49 304 6.1 10.4 0.00 0.00 0.00 67 1008.9
20260508155723 49 306 6.1 12.2 0.00 0.00 0.00 67 1009.0
20260508155236 49 309 8.7 12.2 0.00 0.00 0.00 68 1009.0
20260508154720 49 307 7.8 10.4 0.00 0.00 0.00 67 1009.0
20260508154236 48 338 7.0 10.4 0.00 0.00 0.00 67 1009.0
20260508153735 48 285 7.0 10.4 0.00 0.00 0.00 67 1009.1
20260508153241 48 309 7.0 10.4 0.00 0.00 0.00 69 1009.2
20260508152719 48 315 7.0 10.4 0.00 0.00 0.00 68 1009.2
20260508152235 48 325 5.2 8.7 0.00 0.00 0.00 68 1009.2
20260508151739 48 324 6.1 8.7 0.00 0.00 0.00 67 1009.3
20260508151225 48 316 7.0 8.7 0.00 0.00 0.00 68 1009.3
20260508150740 48 323 6.1 8.7 0.00 0.00 0.00 68 1009.3
20260508150244 48 315 6.1 8.7 0.00 0.00 0.00 66 1009.3
20260508145737 48 311 5.2 9.6 0.00 0.00 0.00 66 1009.3
20260508145244 49 306 7.0 9.6 0.00 0.00 0.00 64 1009.2
20260508144731 50 286 6.1 11.3 0.00 0.00 0.00 64 1009.3
20260508144235 50 286 7.0 11.3 0.00 0.00 0.00 65 1009.4
20260508143721 49 273 5.2 8.7 0.00 0.00 0.00 67 1009.3
20260508143236 49 291 2.6 12.2 0.00 0.00 0.00 68 1009.3
20260508142736 48 301 0.0 13.0 0.00 0.00 0.00 68 1009.3
20260508142220 48 274 5.2 12.2 0.00 0.00 0.00 66 1009.3
20260508141730 47 247 9.6 12.2 0.00 0.00 0.00 67 1009.5
20260508141217 47 249 6.1 13.9 0.00 0.00 0.00 68 1009.5
20260508140732 47 242 5.2 13.9 0.00 0.00 0.00 67 1009.5
20260508140246 47 240 6.1 10.4 0.00 0.00 0.00 67 1009.6
20260508135721 47 232 7.0 9.6 0.00 0.00 0.00 65 1009.6
20260508135237 47 237 5.2 8.7 0.00 0.00 0.00 69 1009.5
20260508134723 47 221 4.3 10.4 0.00 0.00 0.00 69 1009.6
20260508134236 46 222 7.0 10.4 0.00 0.00 0.00 70 1009.5
20260508133718 46 229 4.3 8.7 0.00 0.00 0.00 72 1009.6
20260508133232 45 218 6.1 9.6 0.00 0.00 0.00 71 1009.6
20260508132729 45 212 0.0 5.2 0.00 0.00 0.00 72 1009.7
20260508132234 44 198 0.0 5.2 0.00 0.00 0.00 76 1009.7
20260508131721 43 227 2.6 5.2 0.00 0.00 0.00 77 1009.7
20260508131236 43 169 0.0 0.0 0.00 0.00 0.00 78 1009.7
20260508130722 42 177 0.0 0.0 0.00 0.00 0.00 77 1009.7
20260508130217 42 126 0.0 0.0 0.00 0.00 0.00 79 1009.8
20260508125739 41 130 0.0 0.0 0.00 0.00 0.00 79 1009.8
20260508125245 41 128 0.0 0.0 0.00 0.00 0.00 79 1009.9
20260508124731 40 128 0.0 0.0 0.00 0.00 0.00 81 1009.9
20260508124239 40 130 0.0 0.0 0.00 0.00 0.00 80 1009.9